Home > Weather > Babylon > Past weeks

Flag for USA Weather for the Past 2 Weeks in Babylon, New York, USA

Now
52 °F

Fog.


Feels Like: 50 °F
Forecast: 48 / 52 °F
Wind: 6 mph from East

Location: Republic Airport

Current Time: May 3, 2016 at 6:06:10 PM

Latest Report: May 3, 2016 at 5:04 PM


Visibility: 3 mi

Pressure: 29.81 "Hg

Humidity: 97%

Dew Point: 51 °F

Location of BabylonLocation

Historic Weather in Babylon — Graph

°F

Babylon Temperature Yesterday

Maximum temperature yesterday: 58 °F (at 4:53 PM)
Minimum temperature yesterday: 46 °F (at 12:53 AM)
Average temperature yesterday: 51 °F

High & Low Weather Summary for the Past Weeks

 TemperatureHumidityPressure
High72 °F (Apr 18, 3:53 PM)97% (May 3, 2:53 AM)30.26 "Hg (May 3, 2:53 AM)
Low43 °F (Apr 27, 4:53 AM)18% (Apr 20, 2:53 PM)29.66 "Hg (Apr 26, 2:53 PM)
Average54 °F64%30.01 "Hg
* Reported Apr 18 3:53 PM — May 3 3:53 PM, Babylon, Weather by CustomWeather, © 2016

Note: Actual official high and low records may vary slightly from our data, if they occured in-between our weather recording intervals... More about our weather records

Advertising

Babylon Weather History for the Previous 24 Hours

Scroll right to see more
 ConditionsComfort  
Time TempWeatherWind HumidityBarometerVisibility
3:53 PM
Tue, May 3
52 °FFog.6 mph89%29.81 "Hg4 mi
2:53 PM52 °FFog.8 mph93%29.82 "Hg3 mi
1:53 PM53 °FLow clouds.7 mph93%29.82 "Hg10 mi
12:53 PM53 °FLow clouds.7 mph93%29.83 "Hg10 mi
11:53 AM54 °FFog.7 mph93%29.85 "Hg3 mi
10:53 AM53 °FMostly cloudy.6 mph93%29.85 "Hg10 mi
9:53 AM53 °FLight rain. Fog.9 mph93%29.85 "Hg6 mi
8:53 AM53 °FLight rain. Mostly cloudy.7 mph93%29.86 "Hg8 mi
7:53 AM52 °FLight rain. Mostly cloudy.7 mph97%29.87 "Hg7 mi
6:53 AM52 °FLight rain. Fog.3 mph93%29.88 "Hg4 mi
6:01 AM52 °FRain. Fog.6 mph93%29.87 "Hg4 mi
5:53 AM52 °FLight rain. Fog.8 mph93%29.86 "Hg6 mi
5:03 AM52 °FLight rain. Overcast.6 mph97%29.86 "Hg7 mi
4:53 AM53 °FLight rain. Fog.9 mph93%29.85 "Hg4 mi
3:57 AM52 °FLight rain. Fog.6 mph93%29.86 "Hg5 mi
2:53 AM52 °FRain. Fog.3 mph97%29.90 "Hg5 mi
1:53 AM52 °FLight rain. Fog.No wind93%29.92 "Hg6 mi
12:53 AM52 °FLight rain. Low clouds.5 mph93%29.93 "Hg8 mi
11:53 PM
Mon, May 2
51 °FPartly cloudy.5 mph92%29.95 "Hg9 mi
10:53 PM52 °FClear.No wind89%29.94 "Hg10 mi
9:53 PM51 °FClear.3 mph89%29.93 "Hg10 mi
8:53 PM51 °FClear.3 mph89%29.93 "Hg10 mi
7:53 PM53 °FSunny.3 mph83%29.93 "Hg10 mi
6:53 PM56 °FSunny.7 mph77%29.91 "Hg10 mi
Weather by CustomWeather, © 2016

See weather overviewHow to use our weather pages